EW5833 Weather Reports


Display with metric or nautical units.
time (UTC)temp
F
wind
direction
speed
MPH
gust
MPH
rain 1hr
in
rain 24hr
in
rain mn
in
humidity
%
barometer
mb
20260905104129 64 0 0.0 0.0 0.00 0.09 0.00 98 1015.0
20260905104056 64 0 0.0 3.0 0.00 0.09 0.00 98 1014.9
20260905103352 64 0 0.0 3.0 0.00 0.09 0.00 98 1014.9
20260905102230 64 0 0.0 2.0 0.00 0.09 0.00 98 1014.8
20260905102134 65 0 0.0 2.0 0.00 0.09 0.00 98 1014.8
20260905101526 65 0 0.0 1.0 0.00 0.09 0.00 98 1014.8
20260905101319 65 71 0.0 2.0 0.00 0.09 0.00 98 1014.7
20260905101309 65 79 0.0 2.0 0.00 0.09 0.00 98 1014.7
20260905100346 65 0 0.0 1.0 0.00 0.09 0.00 98 1014.7
20260905095230 65 0 0.0 1.0 0.00 0.09 0.00 98 1014.8
20260905095130 65 0 0.0 1.0 0.00 0.09 0.00 98 1014.7
20260905094230 65 0 0.0 2.0 0.00 0.09 0.00 98 1014.9
20260905094130 65 0 0.0 2.0 0.00 0.09 0.00 98 1014.9
20260905093713 65 0 0.0 0.0 0.00 0.09 0.00 98 1015.1
20260905093129 65 0 0.0 0.0 0.00 0.09 0.00 98 1015.1
20260905093055 65 0 0.0 2.0 0.00 0.09 0.00 98 1014.9
20260905092346 65 0 0.0 2.0 0.00 0.09 0.00 98 1014.9
20260905091231 65 0 0.0 0.0 0.00 0.09 0.00 98 1014.9
20260905091130 65 0 0.0 0.0 0.00 0.09 0.00 98 1014.8
20260905090218 65 0 0.0 0.0 0.00 0.09 0.00 98 1014.6
20260905090130 65 0 0.0 0.0 0.00 0.09 0.00 98 1014.6
20260905085218 65 0 0.0 2.0 0.00 0.09 0.00 98 1014.4
20260905085130 65 0 0.0 2.0 0.00 0.09 0.00 98 1014.4
20260905084558 65 168 1.0 3.0 0.00 0.09 0.00 98 1014.3
20260905084335 65 131 1.0 3.0 0.00 0.09 0.00 98 1014.4
20260905083645 65 0 0.0 3.0 0.00 0.09 0.00 98 1014.1
20260905083118 65 0 0.0 3.0 0.00 0.09 0.00 98 1014.0
20260905082202 65 0 1.0 3.0 0.00 0.09 0.00 97 1014.2
20260905082103 65 49 1.0 3.0 0.00 0.09 0.00 97 1014.2
20260905081202 65 63 0.0 3.0 0.00 0.09 0.00 97 1014.3
20260905081103 65 0 0.0 2.0 0.00 0.09 0.00 97 1014.3
20260905080202 65 0 0.0 2.0 0.00 0.09 0.00 97 1014.5
20260905080104 65 0 0.0 2.0 0.00 0.09 0.00 97 1014.6
20260905075203 65 0 0.0 0.0 0.00 0.09 0.00 97 1014.5
20260905075104 65 0 0.0 0.0 0.00 0.09 0.00 97 1014.5
20260905074203 65 0 0.0 2.0 0.00 0.09 0.00 97 1014.5
20260905074103 65 0 0.0 2.0 0.00 0.09 0.00 97 1014.5
20260905073203 65 80 0.0 2.0 0.00 0.09 0.00 97 1014.4
20260905073103 65 67 0.0 2.0 0.00 0.09 0.00 97 1014.4
20260905072202 65 0 0.0 2.0 0.00 0.09 0.00 97 1014.3
20260905072101 65 0 0.0 2.0 0.00 0.09 0.00 97 1014.4
20260905071202 65 164 0.0 1.0 0.00 0.09 0.00 97 1014.4
20260905071107 65 0 0.0 1.0 0.00 0.09 0.00 97 1014.4
20260905070642 65 0 0.0 2.0 0.00 0.09 0.00 97 1014.3
20260905065800 65 0 0.0 3.0 0.00 0.09 0.00 97 1014.0
20260905065602 65 0 0.0 3.0 0.00 0.09 0.00 97 1013.9
20260905064202 65 72 1.0 3.0 0.00 0.09 0.00 97 1013.9
20260905064102 65 0 1.0 3.0 0.00 0.09 0.00 97 1013.9
20260905063204 65 0 0.0 5.0 0.00 0.09 0.00 97 1014.1
20260905063104 65 0 1.0 5.0 0.00 0.09 0.00 97 1014.1
20260905062203 65 64 0.0 3.0 0.00 0.09 0.00 97 1014.2
20260905062102 65 332 0.0 3.0 0.00 0.09 0.00 97 1014.2
20260905061202 65 26 0.0 2.0 0.00 0.09 0.00 97 1014.4
20260905061102 65 51 0.0 2.0 0.00 0.09 0.00 97 1014.4
20260905060251 65 0 0.0 0.0 0.00 0.09 0.00 97 1014.8
20260905060201 65 0 0.0 1.0 0.00 0.09 0.00 97 1014.5
20260905055605 65 0 0.0 0.0 0.00 0.09 0.00 98 1014.8
20260905054645 65 0 0.0 0.0 0.00 0.09 0.00 98 1014.9
20260905054102 65 0 0.0 0.0 0.00 0.09 0.00 98 1014.9
20260905053152 65 0 0.0 2.0 0.00 0.09 0.00 98 1014.8
20260905053102 65 0 0.0 2.0 0.00 0.09 0.00 98 1014.8
20260905052152 65 0 0.0 0.0 0.00 0.09 0.00 98 1014.6
20260905052100 65 0 0.0 2.0 0.00 0.09 0.00 98 1014.6
20260905051152 65 0 0.0 2.0 0.00 0.09 0.00 98 1014.6
20260905051103 65 0 0.0 2.0 0.00 0.09 0.00 98 1014.6
20260905050149 65 0 0.0 0.0 0.00 0.09 0.00 98 1014.7
20260905050104 65 0 0.0 0.0 0.00 0.09 0.00 98 1014.7
20260905045150 65 0 0.0 0.0 0.00 0.09 0.00 98 1014.7
20260905045102 65 0 0.0 1.0 0.00 0.09 0.00 98 1014.7
20260905044150 65 0 0.0 1.0 0.00 0.09 0.00 98 1014.6
20260905044103 66 0 0.0 0.0 0.00 0.09 0.00 98 1014.6
20260905043811 66 0 0.0 0.0 0.00 0.09 0.00 97 1014.7
20260905043632 66 0 0.0 0.0 0.00 0.09 0.00 97 1014.7
20260905042150 66 0 0.0 3.0 0.00 0.09 0.00 97 1014.6
20260905042103 66 0 0.0 3.0 0.00 0.09 0.00 97 1014.6
20260905041636 66 80 0.0 2.0 0.00 0.09 0.00 97 1014.6
20260905041103 66 0 0.0 2.0 0.00 0.09 0.00 97 1014.6
20260905040548 67 0 0.0 2.0 0.00 0.09 0.00 97 1014.8
20260905040323 67 0 0.0 2.0 0.00 0.09 0.00 97 1014.8
20260905035148 67 0 0.0 2.0 0.00 0.09 0.09 96 1014.9
20260905035102 67 0 0.0 2.0 0.00 0.09 0.09 96 1014.9
20260905034622 67 0 0.0 0.0 0.00 0.09 0.09 95 1015.1
20260905034102 67 0 0.0 0.0 0.00 0.09 0.09 95 1015.1
20260905033145 67 0 0.0 1.0 0.00 0.09 0.09 96 1015.1
20260905033104 68 0 0.0 1.0 0.00 0.09 0.09 95 1015.1
20260905032145 68 0 0.0 2.0 0.00 0.09 0.09 95 1015.2
20260905032102 68 0 0.0 2.0 0.00 0.09 0.09 95 1015.2
20260905031613 68 0 0.0 2.0 0.00 0.09 0.09 95 1015.4
20260905031100 68 0 0.0 2.0 0.00 0.09 0.09 95 1015.5
20260905030143 68 0 0.0 4.0 0.00 0.09 0.09 95 1015.5
20260905030101 68 0 1.0 4.0 0.00 0.09 0.09 95 1015.5
20260905025142 68 96 1.0 4.0 0.00 0.09 0.09 96 1015.3
20260905025101 68 0 1.0 4.0 0.00 0.09 0.09 96 1015.3
20260905024142 69 0 0.0 4.0 0.00 0.09 0.09 96 1015.3
20260905024101 69 0 0.0 4.0 0.00 0.09 0.09 96 1015.3
20260905024050 69 0 0.0 3.0 0.00 0.09 0.09 96 1015.2
20260905023102 69 0 0.0 3.0 0.00 0.09 0.09 96 1015.2
20260905022624 69 56 0.0 3.0 0.00 0.09 0.09 96 1015.3
20260905022101 69 0 0.0 3.0 0.00 0.09 0.09 96 1015.3
20260905021145 69 140 0.0 3.0 0.00 0.09 0.09 96 1015.3
20260905021101 69 80 0.0 3.0 0.00 0.09 0.09 96 1015.3
20260905020535 69 0 0.0 2.0 0.00 0.09 0.09 96 1015.5
20260905020326 69 0 0.0 2.0 0.00 0.09 0.09 96 1015.5
20260905015139 69 0 0.0 0.0 0.00 0.09 0.09 96 1015.5
20260905015100 69 0 0.0 0.0 0.00 0.09 0.09 96 1015.5
20260905014140 69 0 0.0 2.0 0.00 0.09 0.09 96 1015.5
20260905014102 69 0 0.0 2.0 0.00 0.09 0.09 96 1015.5
20260905013140 69 0 0.0 2.0 0.00 0.09 0.09 95 1015.3
20260905013101 69 0 0.0 3.0 0.00 0.09 0.09 95 1015.3
20260905012138 70 82 0.0 3.0 0.00 0.09 0.09 95 1015.2
20260905012101 70 0 0.0 2.0 0.00 0.09 0.09 95 1015.2
20260905011137 70 0 1.0 3.0 0.00 0.09 0.09 95 1015.3
20260905011102 70 121 1.0 3.0 0.00 0.09 0.09 95 1015.3
20260905010624 70 0 1.0 7.0 0.00 0.09 0.09 95 1015.1
20260905010106 70 0 1.0 7.0 0.00 0.09 0.09 95 1015.1
20260905005133 70 57 1.0 7.0 0.00 0.09 0.09 95 1015.0
20260905005102 70 118 1.0 4.0 0.00 0.09 0.09 95 1015.0
20260905004102 71 0 1.0 6.0 0.00 0.09 0.09 95 1014.9
20260905003130 71 47 1.0 4.0 0.00 0.09 0.09 95 1015.0
20260905003100 71 68 1.0 4.0 0.00 0.09 0.09 95 1015.0
20260905002607 72 55 1.0 6.0 0.00 0.09 0.09 94 1014.9
20260905002100 72 0 1.0 6.0 0.00 0.09 0.09 94 1014.9
20260905001129 72 61 2.0 5.0 0.00 0.09 0.09 94 1014.8
20260905001101 72 0 2.0 5.0 0.00 0.09 0.09 94 1014.8
20260905000130 73 0 1.0 6.0 0.00 0.09 0.09 93 1014.7
20260905000057 73 65 1.0 6.0 0.00 0.09 0.09 93 1014.7
20260904235601 74 0 0.0 2.0 0.00 0.09 0.09 92 1014.5
20260904235055 74 51 0.0 2.0 0.00 0.09 0.09 92 1014.5
20260904234607 75 0 0.0 0.0 0.00 0.09 0.09 91 1014.5
20260904234056 75 0 0.0 0.0 0.00 0.09 0.09 91 1014.5
20260904233130 75 0 0.0 0.0 0.00 0.09 0.09 90 1014.3
20260904233057 75 0 0.0 0.0 0.00 0.09 0.09 90 1014.3
20260904232129 76 0 0.0 0.0 0.00 0.09 0.09 90 1014.3
20260904232051 76 0 0.0 0.0 0.00 0.09 0.09 90 1014.3
20260904231129 76 0 0.0 2.0 0.00 0.09 0.09 87 1014.2
20260904231053 76 0 0.0 2.0 0.00 0.09 0.09 87 1014.2
20260904230128 76 0 0.0 0.0 0.00 0.09 0.09 88 1014.1
20260904230053 76 0 0.0 0.0 0.00 0.09 0.09 88 1014.1
20260904225130 76 0 0.0 0.0 0.00 0.09 0.09 88 1014.0
20260904225053 76 0 0.0 0.0 0.00 0.09 0.09 88 1014.0
20260904224621 77 0 0.0 2.0 0.00 0.09 0.09 85 1013.9
20260904224053 77 0 0.0 2.0 0.00 0.09 0.09 85 1013.9
20260904223130 76 0 0.0 2.0 0.00 0.09 0.09 84 1013.8
20260904223050 76 0 0.0 2.0 0.00 0.09 0.09 84 1013.8
20260904222131 77 310 0.0 3.0 0.00 0.09 0.09 84 1013.8
20260904222048 77 302 0.0 3.0 0.00 0.09 0.09 84 1013.8
20260904221130 77 0 0.0 2.0 0.00 0.09 0.09 84 1013.8
20260904221046 77 0 0.0 2.0 0.00 0.09 0.09 84 1013.8
20260904220131 77 298 1.0 3.0 0.00 0.09 0.09 83 1013.8
20260904220046 77 0 1.0 3.0 0.00 0.09 0.09 83 1013.8
20260904215610 77 0 1.0 4.0 0.00 0.09 0.09 81 1013.6
20260904215044 77 289 1.0 4.0 0.00 0.09 0.09 81 1013.6
20260904214522 77 0 1.0 4.0 0.00 0.09 0.09 82 1013.6
20260904214304 77 0 1.0 4.0 0.00 0.09 0.09 82 1013.6
20260904213611 77 305 1.0 6.0 0.00 0.09 0.09 81 1013.5
20260904213043 77 0 1.0 6.0 0.00 0.09 0.09 81 1013.4
20260904212124 77 331 2.0 6.0 0.00 0.09 0.09 81 1013.5
20260904212043 77 329 2.0 6.0 0.00 0.09 0.09 82 1013.5
20260904211123 77 0 1.0 5.0 0.00 0.09 0.09 81 1013.5
20260904211042 77 0 1.0 5.0 0.00 0.09 0.09 81 1013.5
20260904210122 77 303 3.0 7.0 0.00 0.09 0.09 80 1013.5
20260904210043 77 271 3.0 8.0 0.00 0.09 0.09 81 1013.5
20260904205521 79 306 1.0 8.0 0.00 0.09 0.09 78 1013.3
20260904205305 79 298 1.0 8.0 0.00 0.09 0.09 78 1013.1
20260904204526 78 285 2.0 9.0 0.00 0.10 0.09 78 1013.1
20260904204302 78 0 1.0 9.0 0.00 0.10 0.09 78 1013.1
20260904203527 78 303 3.0 9.0 0.00 0.11 0.09 78 1013.1
20260904203300 78 308 3.0 9.0 0.00 0.11 0.09 77 1013.0
20260904202120 78 266 2.0 9.0 0.00 0.13 0.09 77 1013.1
20260904202031 78 317 2.0 9.0 0.00 0.14 0.09 77 1013.3
20260904201554 78 271 2.0 7.0 0.00 0.16 0.09 77 1013.3
20260904201032 78 298 2.0 6.0 0.00 0.16 0.09 77 1013.4
20260904200118 78 334 2.0 5.0 0.00 0.16 0.09 81 1013.4
20260904200029 78 329 2.0 5.0 0.00 0.16 0.09 80 1013.4
20260904195516 78 314 1.0 8.0 0.00 0.17 0.09 80 1013.6
20260904195319 78 0 0.0 3.0 0.00 0.24 0.09 80 1013.7
20260904195250 78 306 1.0 8.0 0.00 0.17 0.09 81 1013.6
20260904194028 77 226 1.0 5.0 0.00 0.27 0.09 83 1013.7
20260904193114 77 301 1.0 5.0 0.00 0.28 0.09 82 1013.8
20260904193027 77 313 1.0 5.0 0.00 0.28 0.09 82 1013.8
20260904192115 77 0 0.0 2.0 0.00 0.28 0.09 85 1014.0
20260904192027 77 0 0.0 2.0 0.00 0.28 0.09 84 1014.0
20260904191113 76 201 0.0 2.0 0.00 0.28 0.09 83 1014.0
20260904191027 76 215 0.0 2.0 0.00 0.28 0.09 82 1014.0
20260904190115 76 0 0.0 3.0 0.00 0.28 0.09 86 1014.0
20260904190027 76 0 0.0 3.0 0.00 0.28 0.09 87 1014.0
20260904185549 77 220 0.0 4.0 0.00 0.28 0.09 86 1014.1
20260904185028 77 227 1.0 4.0 0.00 0.28 0.09 85 1014.1
20260904184113 77 239 0.0 3.0 0.00 0.28 0.09 87 1014.0
20260904184025 77 0 0.0 2.0 0.00 0.28 0.09 86 1014.0
20260904183112 76 0 0.0 2.0 0.00 0.28 0.09 88 1014.0
20260904183025 76 0 0.0 2.0 0.00 0.28 0.09 89 1014.0
20260904182112 76 221 1.0 3.0 0.00 0.28 0.09 88 1014.3
20260904182024 76 0 1.0 3.0 0.00 0.28 0.09 88 1014.3
20260904181546 75 191 1.0 4.0 0.00 0.28 0.09 91 1014.4
20260904181025 75 0 1.0 4.0 0.00 0.28 0.09 91 1014.4
20260904180505 75 230 1.0 5.0 0.00 0.28 0.09 92 1014.5
20260904180242 75 234 1.0 5.0 0.00 0.28 0.09 92 1014.5
20260904175108 75 220 0.0 3.0 0.00 0.28 0.09 92 1014.4
20260904175019 75 174 0.0 3.0 0.00 0.28 0.09 92 1014.4
20260904174105 75 0 1.0 5.0 0.00 0.28 0.09 91 1014.5
20260904174019 75 213 1.0 5.0 0.00 0.28 0.09 91 1014.4
20260904174012 74 0 0.0 2.0 0.00 0.28 0.09 93 1014.4
20260904173822 75 0 1.0 4.0 0.00 0.28 0.09 92 1014.5
20260904173431 75 172 1.0 4.0 0.00 0.28 0.09 92 1014.5
20260904172240 74 0 0.0 2.0 0.00 0.28 0.09 93 1014.4
20260904171104 74 0 1.0 6.0 0.00 0.28 0.09 93 1014.5
20260904171020 74 0 1.0 7.0 0.00 0.28 0.09 94 1014.5
20260904170101 73 233 4.0 7.0 0.00 0.28 0.09 94 1014.5
20260904170008 73 230 4.0 7.0 0.00 0.28 0.09 95 1014.5
20260904165102 73 223 3.0 6.0 0.00 0.28 0.09 98 1014.6
20260904165004 73 235 3.0 6.0 0.00 0.28 0.09 98 1014.6
20260904164452 72 238 2.0 5.0 0.00 0.28 0.09 99 1014.8
20260904164223 72 236 2.0 5.0 0.00 0.28 0.09 99 1014.8
20260904163104 71 218 1.0 4.0 0.00 0.33 0.09 100 1014.9
20260904163005 71 228 1.0 4.0 0.00 0.33 0.09 100 1014.9
20260904162103 70 0 1.0 3.0 0.00 0.33 0.09 100 1015.2
20260904162005 70 139 1.0 3.0 0.00 0.33 0.09 100 1015.1
20260904161102 70 0 0.0 2.0 0.00 0.33 0.09 100 1015.4
20260904161005 70 0 0.0 2.0 0.00 0.33 0.09 99 1015.4
20260904160441 69 113 1.0 3.0 0.00 0.35 0.09 100 1015.4
20260904160226 69 0 1.0 3.0 0.00 0.35 0.09 100 1015.5
20260904155102 69 136 1.0 3.0 0.00 0.35 0.09 99 1015.7
20260904155007 69 156 1.0 3.0 0.00 0.35 0.09 99 1015.7
20260904154445 69 125 0.0 3.0 0.00 0.35 0.09 99 1015.9
20260904154224 69 149 0.0 3.0 0.00 0.35 0.09 99 1015.8
20260904153101 69 0 1.0 3.0 0.00 0.38 0.09 99 1016.2
20260904153002 69 0 1.0 3.0 0.00 0.38 0.09 99 1016.2
20260904152102 69 207 1.0 3.0 0.01 0.43 0.09 99 1016.4
20260904152001 69 0 1.0 3.0 0.01 0.44 0.09 99 1016.4
20260904151102 69 136 1.0 3.0 0.02 0.44 0.09 99 1016.4
20260904151002 68 0 1.0 3.0 0.03 0.44 0.09 99 1016.4
20260904150001 68 118 0.0 2.0 0.04 0.44 0.09 99 1016.1
20260904145102 67 0 0.0 2.0 0.04 0.44 0.09 99 1016.2
20260904145002 67 0 0.0 2.0 0.04 0.44 0.09 99 1016.2
20260904144101 67 0 1.0 3.0 0.04 0.44 0.09 99 1016.4
20260904144002 67 0 1.0 3.0 0.04 0.44 0.09 99 1016.2
20260904143102 67 131 1.0 3.0 0.04 0.44 0.09 99 1015.9
20260904143003 67 134 1.0 3.0 0.04 0.44 0.09 99 1015.9
20260904142102 67 155 1.0 2.0 0.03 0.43 0.08 99 1015.9
20260904142002 67 123 1.0 2.0 0.03 0.43 0.08 99 1015.9
20260904141101 67 0 0.0 2.0 0.02 0.42 0.07 99 1015.9
20260904141002 67 144 1.0 2.0 0.01 0.42 0.07 99 1015.9
20260904140001 67 209 1.0 2.0 0.02 0.41 0.06 99 1015.9
20260904135441 67 0 1.0 2.0 0.04 0.41 0.06 99 1016.1
20260904135223 67 0 1.0 2.0 0.04 0.41 0.06 99 1016.1
20260904134103 67 166 0.0 1.0 0.05 0.41 0.06 99 1016.1
20260904134004 67 0 0.0 1.0 0.05 0.41 0.06 99 1016.1
20260904133104 67 0 0.0 1.0 0.05 0.41 0.06 99 1016.4
20260904133005 67 0 0.0 2.0 0.05 0.41 0.06 99 1016.4
20260904132103 67 63 0.0 2.0 0.06 0.41 0.06 99 1016.2
20260904131954 67 55 1.0 2.0 0.06 0.41 0.06 99 1016.4
20260904131537 67 121 1.0 3.0 0.06 0.41 0.06 99 1016.4
20260904130955 67 111 1.0 3.0 0.06 0.41 0.06 99 1016.4
20260904130435 66 0 0.0 0.0 0.04 0.39 0.04 99 1016.6
20260904130219 66 0 0.0 0.0 0.04 0.39 0.04 99 1016.7
20260904125102 66 0 0.0 1.0 0.02 0.37 0.01 99 1016.2
20260904124953 66 0 0.0 1.0 0.01 0.36 0.01 99 1016.2
20260904124102 66 0 1.0 3.0 0.01 0.36 0.01 99 1016.2
20260904123955 66 0 1.0 3.0 0.01 0.36 0.00 99 1016.2
20260904123102 66 173 1.0 3.0 0.00 0.35 0.00 99 1015.8
20260904122940 66 157 1.0 4.0 0.00 0.35 0.00 99 1015.8
20260904122102 66 165 1.0 4.0 0.00 0.35 0.00 99 1016.0
20260904121941 66 137 1.0 3.0 0.00 0.35 0.00 99 1016.0
20260904121102 66 0 1.0 3.0 0.00 0.35 0.00 99 1015.8
20260904120941 66 203 1.0 3.0 0.00 0.35 0.00 99 1015.7
20260904115941 66 130 1.0 3.0 0.00 0.35 0.00 99 1015.5
20260904115102 66 0 0.0 2.0 0.00 0.35 0.00 99 1015.6
20260904114930 66 140 0.0 2.0 0.00 0.35 0.00 99 1015.7
20260904114103 66 0 0.0 3.0 0.00 0.35 0.00 99 1015.6
20260904113930 66 0 0.0 3.0 0.00 0.35 0.00 99 1015.6
20260904113103 66 0 0.0 2.0 0.00 0.35 0.00 99 1015.7
20260904112929 66 312 0.0 3.0 0.00 0.35 0.00 99 1015.6
20260904112103 66 177 0.0 3.0 0.00 0.35 0.00 99 1015.4
20260904111929 66 158 0.0 2.0 0.00 0.35 0.00 99 1015.4
20260904111103 66 0 0.0 0.0 0.00 0.35 0.00 99 1015.4
20260904110928 66 0 0.0 0.0 0.00 0.35 0.00 99 1015.4
20260904105929 66 0 0.0 0.0 0.00 0.35 0.00 99 1015.1
20260904105102 66 0 0.0 0.0 0.00 0.35 0.00 99 1015.0
20260904104929 66 0 0.0 0.0 0.00 0.35 0.00 99 1015.0